Regional Weather Roundup
Issued by NWS Sterling, VA

Home | Current Version | Previous Version | Text Only | Print | Product List | Glossary On
Versions: 1 2 3 4 5 6 7 8 9 10 11 12 13 14 15 16 17 18 19 20 21 22 23 24 25 26 27 28 29 30 31 32 33 34 35 36 37 38 39 40 41 42 43 44 45 46 47 48 49 50
000
ASUS41 KLWX 262210
RWRLWX

REGIONAL WEATHER ROUNDUP
NATIONAL WEATHER SERVICE BALTIMORE MD/WASHINGTON DC
600 PM EDT THU MAY 26 2016

Note: "FAIR" indicates few or no clouds below 12,000 feet
with no significant weather and/or obstructions to visibility.
 TC=TEMPERATURE CELSIUS

 * =Non NWS site. Station does not report precipitation (e.g. rain,
    snow, etc.), thunder, or fog.

DCZ001-MDZ009-015-VAZ040>042-051-053>054-262300-
WASHINGTON METRO

CITY           SKY/WX    TMP DP  RH WIND       PRES   REMARKS
WASHINGTON NAT FAIR      83  64  52 S10       30.00F
DULLES         FAIR      86  62  44 S15       30.01F
ANDREWS AFB    SUNNY     87  62  43 SW12      30.01F
FT BELVOIR     FAIR      87  65  47 SE6       30.00F
QUANTICO       FAIR      85  66  53 SW6       30.01F
COLLEGE PARK*  FAIR      88  61  40 S8        30.00F
LEESBURG*      FAIR      90  64  43 SW15G21   30.02F HX  91
MANASSAS*      SUNNY     88  63  42 SW7       30.01F

$$

MDZ006>007-011-014-262300-
BALTIMORE METRO

CITY           SKY/WX    TMP DP  RH WIND       PRES   REMARKS
BWI AIRPORT    PTSUNNY   87  62  43 SW5       30.00F
MD SCIENCE CTR   N/A     88  63  43 MISG      30.00F
MARTIN STATE   MOSUNNY   84  70  61 SE9       30.02F
ANNAPOLIS      MOSUNNY   80  66  62 S10       30.01F
FORT MEADE*    MOSUNNY   84  63  48 S9        30.03F

$$

MDZ012-015-019>023-262300-
MARYLAND EASTERN SHORE

CITY           SKY/WX    TMP DP  RH WIND       PRES   REMARKS
OCEAN CITY     SUNNY     73  65  75 S9        30.07F
SALISBURY      SUNNY     86  58  38 S9        30.04F
BAY BRIDGE AP* SUNNY     86  64  48 S12       30.02F
CAMBRIDGE*     SUNNY     82  63  51 S6        30.04F
EASTON*          N/A     88  68  51 SW10      30.07F HX  91

$$

MDZ017>025-262300-
SOUTHERN MARYLAND

CITY           SKY/WX    TMP DP  RH WIND       PRES   REMARKS
PATUXENT RIVER MOSUNNY   81  65  58 SE8       30.02F
ST INIGOES     SUNNY     86  65  49 SE8       30.02F
LEONARDTOWN*   SUNNY     86  59  39 SW3       30.04F

$$

MDZ003>005-262300-
NORTH CENTRAL MARYLAND

CITY           SKY/WX    TMP DP  RH WIND       PRES   REMARKS
FREDERICK*     MOSUNNY   84  70  61 SW8       30.04F
HAGERSTOWN APT CLOUDY    87  59  38 S8        30.01F
WESTMINSTER*   CLOUDY    88  82  84 W5        30.03F HX 108

$$

MDZ501>502-262300-
WESTERN MARYLAND

CITY           SKY/WX    TMP DP  RH WIND       PRES   REMARKS
OAKLAND*       CLOUDY    72  55  56 W7        30.13S
CUMBERLAND*    CLOUDY    72  68  88 N5        30.08F

$$

VAZ025>031-262300-
SHENANDOAH VALLEY

CITY           SKY/WX    TMP DP  RH WIND       PRES   REMARKS
WINCHESTER*    PTSUNNY   82  63  51 S6        30.02S
FRONT ROYAL*   CLOUDY    86  63  45 S3        30.01F
LURAY*         FAIR      86  61  42 SW10      30.02F
NEW MARKET*    FAIR      83  64  51 S8        30.00F
STAUNTON*      FAIR      81  62  51 S8        30.07F
WAYNESBORO*    FAIR      82  60  47 SW9       30.08S

$$

WVZ021-048>050-054>055-262300-
EASTERN WEST VIRGINIA PANHANDLE

CITY           SKY/WX    TMP DP  RH WIND       PRES   REMARKS
MARTINSBURG    LGT RAIN  83  67  58 SW3       30.01F
PETERSBURG*    PTSUNNY   75  69  81 N3        30.06S

$$

VAZ036>039-050-262300-
CENTRAL FOOTHILLS

CITY           SKY/WX    TMP DP  RH WIND       PRES   REMARKS
CHARLOTTESVILL FAIR      86  63  45 S14       30.03F
CULPEPER*      FAIR      87  64  45 S8        30.02F
ORANGE*        FAIR      88  63  42 SW6       30.04F
GORDONSVILLE*  FAIR      86  65  49 S9        30.02F
WARRENTON*     FAIR      87  58  36 S10       30.01F

$$

VAZ055>057-262300-
NORTH AND CENTRAL PIEDMONT

CITY           SKY/WX    TMP DP  RH WIND       PRES   REMARKS
FREDERICKSBRG* NOT AVBL
STAFFORD*      FAIR      87  60  40 S7        30.05F

$$

NCZ024-NYZ072-PAZ021-071-VAZ022-071-262300-
OTHER REGIONAL OBSERVATIONS

CITY           SKY/WX    TMP DP  RH WIND       PRES   REMARKS
NEW YORK CITY  MOSUNNY   83  47  28 VRB3      30.06F
PHILADELPHIA   MOSUNNY   88  55  32 SW9       30.03F
PITTSBURGH     PTSUNNY   80  60  50 SW13      30.02F
ROANOKE        FAIR      78  67  68 SE5       30.11F
RICHMOND       FAIR      86  60  41 S13       30.03F
RALEIGH        MOSUNNY   86  63  45 SW9       30.08F

$$

ANZ530>537-262300-
MARINE OBSERVATIONS

STATION/POSITION TIME  TEMP    WIND        PRES
                       AIR SEA DIR/SP/G
                 (UTC) (F)     (DEG/KT/KT) (MB)
THOMAS PT LIGHT  2200   72 64  180/  9/ 10 1017.7F
BALT KEY BRIDGE  2100   82     130/ 13/ 14 1016.3F
COVE POINT       2100   72     190/ 13/ 15 1018.0F
LEWISETTA        2100   88 74  240/  6/  7 1017.1F
SOLOMONS ISLAND  2100   80 67  110/  6/  8   N/A
PINEY POINT      2100          110/  4/  5   N/A

$$




USA.gov is the U.S. government's official web portal to all federal, state and local government web resources and services.